{"data":{"norad_id":56371,"epoch":"2026-05-25T00:39:59.808384Z","epoch_age_seconds":62812,"freshness":"FRESH","line1":"1 56371U 23060B   26145.02777556 -.00000064  00000+0  00000+0 0  9999","line2":"2 56371   2.7165  80.2181 0001804  30.9975 213.9006  1.00270906 11223","mean_motion":1.00270906,"eccentricity":0.0001804,"inclination_deg":2.7165,"raan_deg":80.2181,"arg_perigee_deg":30.9975,"mean_anomaly_deg":213.9006,"bstar":0,"rev_number":1122,"period_min":1436.1094932163,"perigee_km":35779.2348165,"apogee_km":35794.447940699,"semimajor_km":42164.978378599,"source":"CELESTRAK","updated_at":"2026-05-25T13:38:14.140493Z"}}